"Pseudo-MPEC" for ZG86CF5

Created 2018 Apr 18 17:18:13 UT using Find_Orb

Click here for an explanation of pseudo-MPECs

 
 Astrometry: 
     ZG86CF5  C2018 04 15.37910 14 23 56.15 -05 54 58.9          21.1 GUNEOCPG96
     ZG86CF5  C2018 04 15.38425 14 23 56.66 -05 54 45.7          21.2 GUNEOCPG96
     ZG86CF5  C2018 04 15.38942 14 23 57.16 -05 54 30.5          20.6 GUNEOCPG96
     ZG86CF5  C2018 04 15.39459 14 23 57.67 -05 54 15.8          20.8 GUNEOCPG96
     ZG86CF5  C2018 04 15w4Astrometry??OSGlb$XKy[MsSpl?q`G;XT'hmwe[+0oRV11ti\H01
     ZG86CF5  C2018 04 15tJdm#Z:v+DFXR(FE%fZAqDj#!4NjKHn5pqIdGUdk!vw)wvbcV]4MH01
     ZG86CF5  C2018 04 157(L)LQ+@f!kie9D)^redacted;6]#2F@i]TC1kxmq'tH2:hh`X-SH01
     ZG86CF5  C2018 04 15V7kV=':t:::]Qn_X01_*YLx:^ZGk6^]GUd;OX/C;`7v#QT3bnqu@H01
     ZG86CF5  C2018 04 15.47301 14 24 05.77 -05 50 36.9          21.3 GUNEOCPI52
     ZG86CF5  C2018 04 15.47466 14 24 05.95 -05 50 32.6          21.8 GUNEOCPI52
     ZG86CF5  C2018 04 15.47632 14 24 06.16 -05 50 27.6          20.5 GUNEOCPI52
     ZG86CF5  C2018 04 15.47798 14 24 06.30 -05 50 23.1          20.9 GUNEOCPI52
     ZG86CF5  C2018 04 16.29911 14 25 53.41 -05 14 53.4          20.5 GUNEOCPI52
     ZG86CF5  C2018 04 16.30303 14 25 53.76 -05 14 44.3          21.0 GUNEOCPI52
     ZG86CF5  C2018 04 16.30468 14 25 53.88 -05 14 40.4          20.9 GUNEOCPI52
     ZG86CF5  C2018 04 16.30634 14 25 54.04 -05 14 36.2          20.9 GUNEOCPI52
     ZG86CF5 KC2018 04 17oQ4.1[yt\I)!3YMVO3H%6y3#;'tj!DB5seeR-K+/EB2NCPaV#r+kH21
     ZG86CF5 KC2018 04 17@0'?x_4%YX[Wp/bA;K@]^oZh06F(B7H,rA^W/dkBEHvoX^kM01dHH21
     ZG86CF5 KC2018 04 17D6k4\M0sPqlKUI5?nW=ShO8YHj@pK`pRCCcpsZby5f4/Zk'NEOCPH21
     ZG86CF5  C2018 04 17.97152 14 28 44.02 -04 14 02.1          21.0 VSNEOCP033
     ZG86CF5  C2018 04 17.97527 14 28 44.27 -04 13 54.7          21.6 VSNEOCP033
     ZG86CF5  C2018 04 17.97903 14 28 44.53 -04 13 47.4          20.9 VSNEOCP033
     ZG86CF5  C2018 04 17.98278 14 28 44.79 -04 13 39.9          21.1 VSNEOCP033
     ZG86CF5  C2018 04 17.98654 14 28 45.04 -04 13 32.4          21.0 VSNEOCP033

Station data:
(033) Karl Schwarzschild Observatory, Tautenburg  (N50.980140 E11.711240)
   Germany. 1.3-m Schmidt.
(G96) Mt. Lemmon Survey  (N32.442754 W110.788720)  US/Arizona.  Observers E.
   J. Christensen, A. R. Gibbs, A. D. Grauer, R. E. Hill, J. A. Johnson, R.
   A. Kowalski, S. M. Larson, F. C. Shelly. 1.5-m reflector + CCD.
(H01) Magdalena Ridge Observatory, Socorro  (N33.985151 W107.189200)  US/New
   Mexico.  Observers W. H. Ryan, E. V. Ryan. Measurer W. H. Ryan. 2.4-m
   f/8.9 reflector + CCD.
(H21) Astronomical Research Observatory, Westfield  (N39.483057 W87.968270)
   US/Illinois. 0.76-m f/3.0 astrograph + CCD.
(I52) Steward Observatory, Mt. Lemmon Station  (N32.442547 W110.788920)
   US/Arizona.

Orbital elements:  ZG86CF5
   Perihelion 2018 Feb 27.919873 +/- 0.0425 TT = 22:04:37 (JD 2458177.419873)
Epoch 2018 Apr 17.0 TT = JDT 2458225.5   Earth MOID: 0.0215   Ma: 0.0938
M  18.08055 +/- 0.17                (J2000 ecliptic)          AutoNEOCP
n   0.37605043 +/- 0.00341          Peri.  308.79786 +/- 0.014
a   1.90095564 +/- 0.0115           Node   200.46492 +/- 0.0049
e   0.5151222 +/- 0.00312           Incl.    6.66174 +/- 0.030
P   2.62/957.30d           H 25.5   G  0.15   U  8.9  
q 0.92173103 +/- 0.000371    Q 2.88018025 +/- 0.0236
From 24 observations 2018 Apr. 15-17; mean residual 0".20
Residuals in arcseconds: 
180415 G96  .07+  .57+    180415 I52  .01-  .07-    180417 H21  .08+  .03-    
180415 G96  .06+  .66-    180415 I52  .02+  .38-    180417 H21  .19+  .18-    
180415 G96  .14-  .06+    180415 I52  .47+  .01-    180417 H21  .17+  .12+    
180415 G96  .20-  .29+    180415 I52  .12-  .14-    180417 033  .07-  .07-    
180415 H01  .07-  .02+    180416 I52  .23-  .32+    180417 033  .15-  .01-    
180415 H01  .03-  .17+    180416 I52  .12+  .14-    180417 033  .09-  .07-    
180415 H01  .00   .10+    180416 I52  .13-  .26-    180417 033  .01-  .09+    
180415 H01  .07-  .00     180416 I52  .20+  .11-    180417 033  .09-  .23+    

Ephemerides (geocentric):
Date (UTC) HH   RA              Dec         delta   r     elong  mag " sig PA
---- -- -- --  ------------   ------------  ------ ------ -----  --- ---- ---
2018 04 18 17  14 29 46.684   -03 49 56.54  .10831 1.1100 166.9 21.6  .53 174
2018 04 18 18  14 29 50.070   -03 48 42.54  .10858 1.1102 166.9 21.6  .54 174
2018 04 18 19  14 29 53.436   -03 47 28.92  .10884 1.1105 166.9 21.6  .55 174
2018 04 18 20  14 29 56.782   -03 46 15.69  .10910 1.1108 166.9 21.6  .56 174
2018 04 18 21  14 30 00.110   -03 45 02.85  .10937 1.1111 166.9 21.6  .57 175
2018 04 18 22  14 30 03.418   -03 43 50.39  .10963 1.1113 166.9 21.6  .58 175
2018 04 18 23  14 30 06.707   -03 42 38.31  .10990 1.1116 166.9 21.6  .59 175
2018 04 19 00  14 30 09.977   -03 41 26.61  .11016 1.1119 166.9 21.6  .60 176
2018 04 19 01  14 30 13.229   -03 40 15.29  .11043 1.1121 166.9 21.7  .61 176
2018 04 19 02  14 30 16.462   -03 39 04.34  .11069 1.1124 166.9 21.7  .62 176
2018 04 19 03  14 30 19.676   -03 37 53.76  .11096 1.1127 166.9 21.7  .63 176
2018 04 19 04  14 30 22.872   -03 36 43.55  .11122 1.1130 166.9 21.7  .64 177
2018 04 19 05  14 30 26.050   -03 35 33.71  .11149 1.1132 167.0 21.7  .65 177
2018 04 19 06  14 30 29.210   -03 34 24.24  .11175 1.1135 167.0 21.7  .66 177
2018 04 19 07  14 30 32.351   -03 33 15.13  .11202 1.1138 167.0 21.7  .67 177
2018 04 19 08  14 30 35.475   -03 32 06.38  .11228 1.1140 167.0 21.7  .68 178
2018 04 19 09  14 30 38.582   -03 30 57.98  .11255 1.1143 167.0 21.7  .69 178
2018 04 19 10  14 30 41.670   -03 29 49.95  .11281 1.1146 167.0 21.7  .70 178
2018 04 19 11  14 30 44.741   -03 28 42.27  .11308 1.1149 167.0 21.7  .71 178
2018 04 19 12  14 30 47.795   -03 27 34.94  .11335 1.1151 167.0 21.7  .72 179
2018 04 19 13  14 30 50.831   -03 26 27.96  .11361 1.1154 167.0 21.7  .73 179
2018 04 19 14  14 30 53.851   -03 25 21.32  .11388 1.1157 167.0 21.7  .74 179
2018 04 19 15  14 30 56.853   -03 24 15.04  .11415 1.1159 167.0 21.7  .75 179
2018 04 19 16  14 30 59.839   -03 23 09.09  .11441 1.1162 167.0 21.7  .76   0
2018 04 19 17  14 31 02.808   -03 22 03.49  .11468 1.1165 167.0 21.7  .77   0
2018 04 19 18  14 31 05.760   -03 20 58.23  .11495 1.1168 167.0 21.7  .78   0
2018 04 19 19  14 31 08.696   -03 19 53.31  .11521 1.1170 167.0 21.8  .79   0
2018 04 19 20  14 31 11.615   -03 18 48.72  .11548 1.1173 167.0 21.8  .80   0
2018 04 19 21  14 31 14.518   -03 17 44.46  .11575 1.1176 167.0 21.8  .81   1
2018 04 19 22  14 31 17.405   -03 16 40.54  .11601 1.1179 167.0 21.8  .82   1
2018 04 19 23  14 31 20.276   -03 15 36.95  .11628 1.1181 167.0 21.8  .83   1
2018 04 20 00  14 31 23.131   -03 14 33.68  .11655 1.1184 167.0 21.8  .84   1
2018 04 20 01  14 31 25.970   -03 13 30.74  .11682 1.1187 167.0 21.8  .85   1
2018 04 20 02  14 31 28.793   -03 12 28.12  .11708 1.1190 167.0 21.8  .87   2
2018 04 20 03  14 31 31.601   -03 11 25.83  .11735 1.1192 167.0 21.8  .88   2
2018 04 20 04  14 31 34.393   -03 10 23.86  .11762 1.1195 167.0 21.8  .89   2
2018 04 20 05  14 31 37.170   -03 09 22.20  .11789 1.1198 167.0 21.8  .90   2
2018 04 20 06  14 31 39.931   -03 08 20.86  .11815 1.1200 167.0 21.8  .91   2
2018 04 20 07  14 31 42.677   -03 07 19.84  .11842 1.1203 167.0 21.8  .92   3
2018 04 20 08  14 31 45.409   -03 06 19.13  .11869 1.1206 167.0 21.8  .93   3
2018 04 20 09  14 31 48.125   -03 05 18.73  .11896 1.1209 167.0 21.8  .94   3
2018 04 20 10  14 31 50.826   -03 04 18.63  .11923 1.1211 167.0 21.8  .95   3
2018 04 20 11  14 31 53.513   -03 03 18.85  .11950 1.1214 167.0 21.8  .96   3
2018 04 20 12  14 31 56.185   -03 02 19.37  .11976 1.1217 167.0 21.8  .98   4
2018 04 20 13  14 31 58.842   -03 01 20.20  .12003 1.1220 167.0 21.8  .99   4
2018 04 20 14  14 32 01.485   -03 00 21.33  .12030 1.1222 167.0 21.9  1.0   4
2018 04 20 15  14 32 04.113   -02 59 22.76  .12057 1.1225 167.0 21.9  1.0   4
2018 04 20 16  14 32 06.728   -02 58 24.49  .12084 1.1228 167.0 21.9  1.0   4